Vorticity
6 8 7 7 6 6 7 7 7 6 7 7 6 6 6 7 7 9 7 7 1 4 4 2 3 3 9 10 8 6 6 7 7 7 7 8 7 8 8 7 6 5 6
6 9 10 9 8 8 7 7 6 7 7 6 5 5 6 6 7 8 9 6 3 4 4 6 8 10 8 6 7 8 8 7 6 7 6 5 5 5 6 6 6 7 6
8 9 9 10 9 8 7 6 7 7 7 8 8 7 6 6 6 6 8 9 9 9 9 9 8 7 8 7 7 5 5 5 5 5 5 5 6 6 6 6 6 6 5
8 6 6 7 9 9 8 8 7 7 7 7 7 7 7 7 8 8 8 8 8 9 9 8 8 7 6 5 5 6 6 7 6 8 8 6 6 7 7 7 8 8 8
5 4 4 4 4 6 9 10 9 8 7 6 6 5 5 5 5 5 5 5 5 5 5 5 4 6 7 6 6 5 6 6 6 5 5 5 6 6 7 7 6 6 6
3 3 2 3 2 2 2 1 8 11 8 7 7 7 6 6 7 7 7 8 8 7 7 6 6 6 6 6 4 3 3 2 2 2 2 2 3 3 3 4 5 7 7
4 2 1 2 1 1 1 1 0 0 2 9 10 5 4 4 4 5 5 5 5 4 3 3 2 2 1 1 1 1 1 1 1 2 2 2 2 2 2 2 1 2 3
4 3 1 0 1 1 1 1 1 1 1 0 1 4 7 9 7 4 1 0 1 1 1 2 2 1 1 1 1 2 2 2 2 2 3 2 3 3 3 3 3 3 3
4 3 1 0 0 1 2 1 0 1 0 2 0 1 1 2 0 0 1 3 4 5 5 5 4 4 3 3 3 2 2 2 3 3 3 3 4 4 2 3 4 4 3
-0 4 1 1 -0 1 1 1 0 1 1 3 1 -1 1 1 1 -0 0 -0 1 -0 -0 -0 -0 -0 1 1 4 4 3 3 3 4 4 5 4 5 5 4 4 4 5
0 1 1 1 -0 -1 1 0 1 2 1 2 1 0 -1 -1 1 2 1 2 2 2 2 2 2 2 1 0 3 -0 5 5 5 5 6 6 6 6 7 7 6 5 6
0 1 -0 2 1 -0 -0 2 1 -0 -0 1 1 2 1 2 2 3 2 3 3 4 4 4 4 4 5 5 4 2 5 6 6 6 6 6 7 7 7 8 8 7 7
7 1 0 2 0 0 1 0 3 0 -0 1 2 2 3 4 4 4 4 5 5 5 5 5 5 5 4 3 3 5 6 5 5 5 5 6 4 5 6 6 7 8 8
6 6 -1 -0 -2 2 4 2 3 2 1 1 2 3 5 5 6 6 7 7 6 6 6 6 5 3 4 4 5 6 5 5 4 4 4 5 4 4 4 6 6 6 6
8 10 4 2 2 -1 4 2 3 2 3 3 4 4 5 6 7 6 5 7 6 6 6 6 5 5 5 6 6 5 5 4 4 4 4 4 4 4 5 6 8 5 5
12 6 6 5 7 5 4 3 3 4 4 4 5 6 6 7 7 4 6 6 7 8 7 7 7 6 6 6 5 4 4 3 4 4 5 4 4 6 5 5 6 6 6
11 12 12 6 10 9 7 4 3 2 3 5 7 7 7 6 5 4 4 5 5 6 8 7 7 6 5 5 5 4 6 8 6 2 5 4 6 8 7 10 9 9 8
5 5 3 7 3 5 5 7 11 10 8 9 8 8 7 5 2 3 3 4 5 5 4 6 5 5 4 5 5 7 6 -0 4 4 6 6 7 7 9 11 10 10 9
4 6 6 6 7 3 -1 6 8 8 10 10 9 7 4 1 1 2 4 4 5 4 4 6 6 5 4 5 3 2 -0 6 7 7 6 10 10 10 10 11 11 11 10
7 5 4 8 9 12 16 14 13 12 13 11 7 5 2 1 2 3 4 4 5 5 5 6 5 5 4 4 6 8 7 6 7 5 10 10 11 16 9 8 8 9 8
5 6 6 5 8 10 12 12 13 11 8 6 3 2 2 2 1 2 5 5 6 8 5 6 4 4 7 9 6 0 3 5 6 4 8 13 3 10 7 7 9 10 9
8 8 8 6 5 6 8 6 6 4 3 3 2 3 4 1 4 6 7 6 5 4 5 6 7 6 5 5 7 7 6 8 9 13 8 8 9 5 6 8 10 6 12
5 5 8 9 8 4 4 4 1 3 2 1 1 3 5 8 5 5 4 4 4 5 5 6 6 5 6 8 11 10 9 10 11 8 7 8 7 5 8 7 6 5 10
7 5 6 7 10 6 4 4 6 3 7 3 4 6 3 2 5 5 5 5 5 6 6 5 6 6 8 10 10 11 9 7 4 7 8 6 4 9 9 6 11 4 11
12 3 8 8 9 12 9 7 7 8 4 4 3 3 5 5 5 5 5 7 7 6 7 8 9 9 11 11 9 9 7 8 10 8 6 14 6 10 7 4 10 12 10
-0 6 6 8 7 5 12 10 6 4 6 -0 2 4 3 2 6 8 7 6 6 7 8 9 11 11 11 9 9 10 10 8 9 10 9 13 8 3 7 14 7 10 10
Height
3175 3176 3176 3176 3176 3177 3177 3178 3178 3179 3179 3179 3180 3180 3180 3181 3181 3182 3183 3185 3186 3187 3188 3189 3190 3191 3191 3191 3191 3191 3191 3191 3191 3190 3190 3189 3188 3188 3187 3186 3185 3184 3184
3176 3176 3177 3176 3177 3178 3179 3179 3180 3181 3181 3181 3182 3182 3182 3183 3184 3185 3186 3187 3188 3190 3190 3191 3192 3193 3193 3193 3193 3193 3194 3193 3193 3192 3191 3190 3190 3189 3188 3187 3186 3186 3185
3176 3177 3178 3178 3178 3179 3180 3181 3182 3183 3184 3184 3184 3184 3185 3186 3187 3187 3188 3190 3190 3191 3192 3193 3194 3195 3195 3195 3196 3196 3195 3195 3195 3194 3193 3191 3191 3190 3190 3189 3188 3187 3185
3177 3177 3179 3179 3180 3181 3182 3183 3184 3185 3186 3187 3187 3187 3188 3189 3189 3190 3191 3192 3193 3193 3194 3196 3196 3197 3197 3198 3198 3197 3197 3197 3196 3195 3194 3193 3193 3192 3191 3190 3189 3188 3187
3177 3178 3179 3180 3181 3183 3184 3185 3186 3187 3187 3188 3189 3190 3190 3191 3192 3193 3194 3195 3195 3196 3197 3198 3199 3199 3200 3200 3200 3199 3199 3198 3198 3197 3196 3195 3195 3194 3193 3191 3190 3189 3187
3177 3178 3179 3181 3182 3184 3186 3187 3189 3190 3190 3190 3191 3192 3193 3194 3195 3196 3197 3198 3198 3199 3200 3200 3201 3202 3202 3202 3202 3202 3201 3200 3200 3199 3198 3197 3196 3195 3194 3193 3191 3190 3189
3176 3179 3180 3181 3183 3185 3187 3189 3190 3192 3193 3194 3194 3195 3196 3197 3198 3199 3200 3200 3201 3201 3202 3203 3203 3204 3204 3204 3203 3203 3202 3202 3201 3200 3199 3198 3197 3196 3195 3194 3193 3192 3190
3176 3179 3180 3182 3183 3185 3187 3189 3191 3193 3194 3196 3197 3197 3198 3199 3200 3201 3202 3203 3203 3204 3204 3205 3205 3205 3205 3205 3205 3204 3204 3203 3202 3201 3200 3199 3198 3197 3196 3195 3194 3192 3190
3175 3178 3180 3182 3184 3185 3187 3189 3191 3193 3195 3197 3198 3199 3200 3201 3202 3203 3204 3205 3205 3206 3206 3206 3206 3206 3206 3206 3206 3205 3204 3204 3202 3201 3200 3199 3198 3197 3195 3194 3193 3191 3190
3173 3177 3180 3182 3184 3185 3187 3188 3191 3193 3195 3197 3199 3200 3202 3203 3203 3204 3205 3205 3206 3206 3207 3207 3207 3207 3206 3206 3205 3204 3203 3203 3202 3201 3199 3198 3197 3196 3195 3193 3192 3190 3189
3170 3174 3178 3181 3183 3185 3187 3189 3191 3193 3195 3198 3199 3201 3202 3203 3205 3205 3206 3206 3206 3206 3206 3206 3206 3206 3206 3205 3205 3204 3203 3202 3201 3199 3198 3196 3195 3193 3192 3192 3190 3189 3187
3168 3172 3177 3179 3182 3184 3187 3189 3191 3193 3195 3197 3199 3201 3202 3203 3204 3205 3205 3206 3206 3206 3206 3206 3205 3205 3205 3205 3203 3202 3201 3200 3199 3197 3196 3194 3192 3190 3189 3188 3187 3185 3184
3167 3170 3174 3177 3179 3182 3186 3189 3191 3193 3194 3196 3198 3199 3201 3202 3202 3203 3204 3204 3204 3204 3204 3204 3204 3204 3203 3203 3202 3201 3199 3198 3196 3195 3194 3192 3190 3188 3186 3185 3183 3182 3180
3167 3168 3172 3175 3177 3181 3185 3187 3189 3191 3193 3194 3196 3198 3199 3200 3201 3201 3202 3202 3202 3202 3202 3202 3202 3201 3201 3200 3199 3198 3197 3196 3194 3192 3191 3189 3188 3185 3183 3181 3180 3178 3177
3161 3164 3169 3173 3175 3178 3182 3184 3186 3188 3190 3192 3194 3195 3196 3197 3198 3199 3199 3200 3199 3199 3199 3199 3198 3198 3197 3197 3196 3195 3194 3192 3191 3189 3188 3187 3184 3182 3179 3177 3176 3174 3173
3159 3162 3167 3170 3172 3175 3177 3181 3184 3185 3187 3189 3191 3192 3193 3194 3196 3196 3197 3197 3197 3196 3196 3196 3195 3195 3194 3193 3192 3191 3189 3188 3187 3186 3184 3182 3181 3178 3175 3173 3171 3169 3167
3158 3161 3164 3167 3169 3171 3173 3177 3180 3182 3183 3185 3188 3189 3190 3191 3192 3193 3193 3194 3194 3193 3193 3193 3192 3191 3190 3189 3188 3187 3185 3184 3182 3180 3180 3177 3175 3174 3172 3169 3166 3164 3162
3155 3158 3161 3163 3165 3169 3169 3172 3176 3178 3180 3182 3184 3186 3187 3188 3189 3190 3190 3190 3190 3190 3190 3190 3189 3188 3187 3185 3184 3182 3180 3179 3177 3175 3173 3172 3169 3166 3165 3164 3162 3159 3156
3152 3155 3156 3159 3162 3165 3166 3168 3172 3174 3176 3178 3180 3183 3184 3185 3186 3186 3187 3187 3187 3187 3186 3186 3184 3183 3182 3181 3179 3177 3176 3174 3173 3172 3170 3168 3165 3161 3159 3156 3155 3154 3151
3148 3151 3153 3156 3159 3161 3163 3165 3167 3170 3173 3175 3178 3179 3180 3182 3182 3183 3183 3183 3182 3182 3182 3181 3179 3178 3177 3176 3174 3172 3170 3168 3167 3166 3165 3163 3159 3156 3153 3151 3149 3148 3146
3145 3147 3151 3153 3155 3157 3160 3162 3164 3167 3169 3171 3174 3175 3176 3178 3178 3178 3179 3178 3177 3177 3177 3176 3174 3172 3171 3170 3168 3166 3164 3164 3162 3161 3159 3156 3153 3150 3148 3146 3144 3141 3139
3140 3143 3147 3150 3152 3154 3158 3160 3161 3162 3165 3166 3168 3170 3171 3173 3174 3173 3174 3173 3172 3172 3171 3170 3168 3167 3165 3164 3161 3159 3155 3159 3157 3155 3153 3151 3148 3145 3141 3140 3138 3136 3134
3136 3139 3142 3145 3148 3150 3153 3155 3157 3159 3161 3163 3163 3165 3168 3168 3169 3168 3168 3168 3167 3166 3166 3164 3162 3160 3157 3156 3156 3155 3149 3148 3148 3146 3144 3144 3143 3140 3136 3133 3133 3131 3129
3132 3135 3137 3140 3142 3145 3149 3151 3152 3155 3157 3157 3159 3160 3162 3163 3163 3162 3162 3162 3161 3159 3159 3158 3156 3154 3151 3150 3148 3148 3147 3143 3141 3140 3140 3136 3134 3134 3130 3126 3126 3125 3123
3126 3129 3132 3135 3137 3139 3143 3145 3147 3149 3150 3153 3154 3154 3156 3156 3157 3157 3156 3155 3154 3153 3151 3150 3148 3147 3145 3143 3141 3140 3139 3138 3137 3134 3131 3131 3128 3127 3125 3121 3121 3119 3117
3118 3123 3126 3129 3132 3134 3137 3139 3141 3144 3146 3147 3148 3148 3149 3149 3149 3149 3149 3148 3146 3145 3143 3142 3140 3138 3137 3135 3134 3133 3131 3130 3130 3128 3126 3125 3122 3123 3119 3116 3115 3114 3111